默认 日期 大小 文件数 浏览量 最新下载 xml
trooper磁力链接相关资源由用户搜索指令自动获取,结果来源于网络,本站不存储任何资料,亦不承担任何责任,请于24小时内删除,搜索到487个磁力,用时0ms。
    ... .jpg": 5763, "armored-trooper-votoms-alone-again-ova_meta.xml ... ": 3139, "armored-trooper-votoms-alone-again-ova_meta.sqlite ... 28672, "[Bro-Lord]Armored Trooper Votoms - Alone Again-1. ... 261534133, "[Bro-Lord]Armored Trooper Votoms - Alone Again-1.mp4 ...
创建时间: 2022-10-11 05:20:42 大小:525.9 MB 文件数量:5 热度:5 最近下载:2025-01-27 01:35:06
    {"001.jpg": 365259, "002.jpg": 60109, "003.jpg": 337951, "004.jpg": 253908, "005.jpg": 231354, "006.jpg": 177810, "007.jpg": 377389, "008.jpg": 140737, "009.jpg": 317652, "010.jpg": 312817, "011.jpg": 352124, "012.jpg": 359216, "013.jpg": 315239, "014.jpg ...
创建时间: 2022-10-14 23:48:56 大小:47.81 MB 文件数量:167 热度:6 最近下载:2025-08-05 06:51:04
    {"Rogue Trooper - CANAL CH1N.zip": 1708724719, "rogue-trooper-canal-ch-1-n_meta.xml": 779, "rogue-trooper-canal-ch-1-n_meta.sqlite": 11264}
创建时间: 2022-10-20 15:57:56 大小:1.59 GB 文件数量:3 热度:11 最近下载:2025-02-12 22:06:01
    {".pad": {"2811127": 2811127, "3910845": 3910845, "3982312": 3982312, "4094785": 4094785}, "imgs": {"covers": {"cover1.png": 211992, "cover2.png": 283459, "cover3.jpg": 99519}}, "metadata.json": 3192, "Rogue Trooper (USA).7z": 1570052873}
创建时间: 2022-10-29 20:35:24 大小:1.48 GB 文件数量:9 热度:3 最近下载:2025-02-16 01:39:02
    {"[Shinsen-Subs]_Armored_Trooper_Votoms_-_The_Last_Red_Shoulder_[DVD][640x480_H.264_AAC][D4320BF6].ass": 48942, "[Shinsen-Subs]_Armored_Trooper_Votoms_-_The_Last_Red_Shoulder_[DVD][640x480_H.264_AAC][D4320BF6].mkv": 891433642}
创建时间: 2022-11-11 06:44:41 大小:850.18 MB 文件数量:2 热度:3 最近下载:2025-03-03 07:23:02
    {"Rogue Trooper_br_emersonlinogames.iso": 2071953408, "rogue-trooper-br-emersonlinogames_meta.xml": 917, "rogue-trooper-br-emersonlinogames_meta.sqlite": 20480}
创建时间: 2022-11-12 07:28:00 大小:1.93 GB 文件数量:3 热度:3 最近下载:2025-03-31 07:41:01
    {"Old": {"04.17.06.Okami_JAP_PS2DVD-WjR.torrent": 143108, "04.18.06.Golden_Knight_Garo_JAP_PS2CD-GANT.torrent": 27940, "04.18.06.Hummer_Badlands_USA_PS2DVD-Start2.torrent": 14627, "04.13.06.Tomb_Raider_Legend_USA_PS2DVD-Start2.torrent": 80924, "04.18.06. ...
创建时间: 2022-11-26 19:55:53 大小:2.47 GB 文件数量:66 热度:5 最近下载:2025-02-15 06:26:02
    {"cover.jpg": 68358, "CD1-Trooper": {"Trooper.cue": 1640, "09 – Trooper.flac": 34391108, "11 – So ... ": 24454697, "Rob Sparx - Trooper.log": 5498, "Rob Sparx - Trooper.m3u": 699, "10 ... – Circus Freak.flac": 30867766, "04 – Trooper (Bar 9 Mix).flac": 38061743 ...
创建时间: 2022-12-12 05:11:36 大小:849.39 MB 文件数量:33 热度:6 最近下载:2025-02-28 19:31:01
    ... �.txt": 1131, "[OUR][Armored Trooper Votoms Pailsen Files_װ�� ... ][R10].rmvb": 116696054, "[OUR][Armored Trooper Votoms Pailsen Files_װ�� ...
创建时间: 2022-12-14 07:14:41 大小:223.78 MB 文件数量:6 热度:2 最近下载:2025-02-21 00:35:02
    {"release.nfo": 421, "release.txt": 421, "trooperfinal.avi": 41881190, "Distributed by Mininova.txt": 291}
创建时间: 2022-12-14 23:59:20 大小:39.94 MB 文件数量:4 热度:6 最近下载:2025-08-15 06:26:02
    ... Galeade.mkv": 1272096829, "Armored Trooper VOTOMS Pailsen Files S01E07 Sniping ... S01E05 Examination.mkv": 1211451411, "Armored Trooper VOTOMS Pailsen Files S01E08 Frozen ... Motion Tactics.mkv": 1151168752, "Armored Trooper VOTOMS Pailsen Files S01E06 Abnormal ...
创建时间: 2022-12-15 17:19:54 大小:14.25 GB 文件数量:12 热度:4 最近下载:2025-02-16 12:39:03
    ... �.txt": 1131, "[OUR][Armored Trooper Votoms Pailsen Files_װ�� ... ][R10].rmvb": 117035256, "[OUR][Armored Trooper Votoms Pailsen Files_װ�� ...
创建时间: 2022-12-18 15:30:24 大小:224.21 MB 文件数量:6 热度:2 最近下载:2025-01-06 04:11:07
    {"Artwork": {"01.jpg": 2181406, "02.jpg": 2247513, "03.jpg": 6282428, "04.jpg": 7599210, "05.jpg": 8752037, "06.jpg": 8121588, "07.jpg": 8014260, "08.jpg": 7994903, "09.jpg": 9092263, "10.jpg": 6634087, "11.jpg": 7433784, "12.jpg": 9171775, "13.jpg": ...
创建时间: 2022-12-24 17:57:34 大小:480.35 MB 文件数量:28 热度:6 最近下载:2025-08-03 05:22:10
    ... Spune-Mi Ceva.png": 36937, "Trooper - X (2022).jpg": 90420, ... Dragoste Falsa.png": 35391, "trooper-x-2022_meta.xml": 676, "01 ... De Dor.png": 36278, "trooper-x-2022_meta.sqlite": 40960, ... 09 - Ruinele_spectrogram.png": 327747, "Trooper - X (2022)_thumb.jpg": 9934 ...
创建时间: 2022-12-29 05:30:51 大小:145.17 MB 文件数量:32 热度:3 最近下载:2025-02-13 20:02:02
    {"Torrent downloaded from Demonoid.com.txt": 47, "SS.Doomtrooper.2006(SciFi original),Xvid-SER.avi": 734048256}
创建时间: 2022-12-30 07:43:56 大小:700.04 MB 文件数量:2 热度:3 最近下载:2025-01-21 21:09:02
    ... Close.mp3": 242058126, "Drop Trooper 01 - Contact Front.jpg": ... 57041, "Drop Trooper 01 - Contact Front.m4b": ... 228575864, "Drop Trooper 02 - Kinetic Strike.jpg": ... 297482, "Drop Trooper 02 - Kinetic Strike.m4b": 241033090 ...
创建时间: 2022-12-30 21:00:43 大小:679.09 MB 文件数量:6 热度:4 最近下载:2025-01-18 03:01:44
    ... 385372645, "Dangerous-Girls - Four Trooper Girls Cane A Slave.wmv ... 1902432, "Dangerous-Girls - Four Trooper Girls Cane A Slave.wmv ... 164792, "Dangerous-Girls - Four Trooper Girls Cane A Slave.wmv ... 216662, "Dangerous-Girls - Four Trooper Girls Cane A Slave.wmv ...
创建时间: 2023-01-17 17:42:36 大小:371.03 MB 文件数量:12 热度:4 最近下载:2025-01-22 13:40:11
    {"Update": {"Setup.exe": 9015948, "Setup-1.cdx": 21417822, "patchnotes.txt": 74}, "plaza.nfo": 3476, "README!!!.txt": 232, "GoodOldDownloads.com.url": 237}
创建时间: 2023-01-27 07:29:55 大小:29.03 MB 文件数量:6 热度:2 最近下载:2025-01-13 07:36:04
    {"Read me.txt": 434, "[Chaturbate] Storm Trooper Hump - Elisadeathnaked [Star Wars].mp4": 254879289}
创建时间: 2023-02-02 15:54:42 大小:243.07 MB 文件数量:2 热度:5 最近下载:2025-09-19 12:25:02
    ... Encounter.mkv": 2747781196, "Armored Trooper VOTOMS S01E06 Prototype.mkv": ... Intersection.mkv": 2986385606, "Armored Trooper VOTOMS S01E25 Infiltration.mkv": 2481565877 ... Blast.mkv": 2928263424, "Armored Trooper VOTOMS S01E23 Complications.mkv": 3161660042 ...
创建时间: 2023-03-10 22:49:51 大小:132.72 GB 文件数量:156 热度:3 最近下载:2025-01-11 17:06:07